World > North America > United States > Kansas

Arma, Kansas Regional Weather

Lat: 37.54N, Lon: 94.7W
Wx Zone: KSZ097Web Search
Arma Weather Warning NWS WEATHER ALERT FOR THE ARMA, KS AREA - Issued: 647 PM CDT Sun May 16 2021 Arma Weather Warning  

Helpful Tip: You can add this page to Bookmarks by pressing the Ctrl key & d key at the same time. Mac users press command & d.

Feedback


°F Click to change Arma hourly weather to Imperial units.Click to change Arma hourly weather to Metric units. °C
Arma Weather Map
UTC Time: 5/17/2021, 01:15
Your Time:

Arma, KS Regional Weather

Expires:202105170200;;231230
ASUS43 KTOP 170108
RWRKS 

WEATHER ROUNDUP FOR KANSAS
NATIONAL WEATHER SERVICE GOODLAND KS
800 PM CDT SUN MAY 16 2021

NOTE:  "FAIR" INDICATES FEW OR NO CLOUDS BELOW 12,000 FEET WITH NO
SIGNIFICANT WEATHER AND/OR OBSTRUCTIONS TO VISIBILITY.


KSZ066>073-081>083-090>101-170200-
SOUTHEAST KANSAS
  
CITY           SKY/WX    TMP DP  RH WIND       PRES   REMARKS
CHANUTE        LGT RAIN  67  65  93 N3        29.97S                  
COFFEYVILLE    RAIN      67  65  93 N3        29.93R FOG              
HUTCHINSON     MOCLDY    67  61  81 SE14      29.89F                  
MEDICINE LODGE   N/A     68  61  78 SE7G17    29.89S                  
NEWTON         CLOUDY    63  61  93 S12       29.91F                  
PARSONS        LGT RAIN  67  66  97 CALM      29.96S FOG              
WICHITA INTL   MOCLDY    67  61  81 SE10      29.90F                  
WICHITA JABRA  CLOUDY    66  61  84 SE9       29.90F                  
WINFIELD       CLOUDY    68  59  73 SE9       29.92F                  
$$


SKY/WX - Weather  TMP - Temperature  DP - Dew Point  RH - Relative Humidity
WIND - Wind Direction/Speed PRES - Barometric Pressure VSB - Visibility
WCI - Wind Chill Index E13G22 Wind - East Wind 13 mph/Gusts of 22 mph